UAE205 MGGT-KLAX

Flight info

Callsign UAE205
Flight time N/A
Altitude 36000
Route GABE2B GABEN UA552 VER DCT PPE DCT AMMOR SNSTT2
Aircraft A388/J-SADE2E3FGHIJ3J4J5M1RWXY/LB1D1

Departure

Time 2026-04-15 23:52
Airport La Aurora International Airport (MGGT)

Arrival

Time N/A
Airport Los Angeles International Airport (KLAX)
Time Latitude Longitude Altitude Speed Heading
2026-04-15 23:52 14.61459 -90.51735 5841 ft 200 kts 18°
2026-04-15 23:52 14.62829 -90.51389 6343 ft 215 kts
2026-04-15 23:53 14.64360 -90.51573 6845 ft 232 kts 349°
2026-04-15 23:53 14.66012 -90.51833 7433 ft 253 kts 354°
2026-04-15 23:53 14.67801 -90.52027 7840 ft 274 kts 354°
2026-04-15 23:53 14.69723 -90.52253 8406 ft 284 kts 354°
2026-04-15 23:54 14.71693 -90.52478 9050 ft 286 kts 356°
2026-04-15 23:54 14.73662 -90.52396 9668 ft 287 kts
2026-04-15 23:54 14.75638 -90.52446 10296 ft 294 kts 347°
2026-04-15 23:54 14.77626 -90.53239 10874 ft 326 kts 333°
2026-04-15 23:55 14.79613 -90.54575 11416 ft 362 kts 322°
2026-04-15 23:55 14.81458 -90.56483 12083 ft 395 kts 308°
2026-04-15 23:55 14.83012 -90.58903 12748 ft 416 kts 301°
2026-04-15 23:55 14.84562 -90.61465 13393 ft 423 kts 305°
2026-04-15 23:56 14.86235 -90.63964 14023 ft 427 kts 305°
2026-04-15 23:56 14.87888 -90.66506 14649 ft 430 kts 305°
2026-04-15 23:56 14.89564 -90.69061 15274 ft 433 kts 305°
2026-04-15 23:56 14.91250 -90.71636 15898 ft 437 kts 305°
2026-04-15 23:57 14.92947 -90.74231 16523 ft 440 kts 305°
2026-04-15 23:57 14.94657 -90.76842 17147 ft 443 kts 305°
2026-04-15 23:57 14.96387 -90.79490 17776 ft 446 kts 305°
2026-04-15 23:57 14.98121 -90.82141 18400 ft 449 kts 305°
2026-04-15 23:58 14.99866 -90.84809 19025 ft 452 kts 305°
2026-04-15 23:58 15.01621 -90.87496 19649 ft 455 kts 305°
2026-04-15 23:58 15.03387 -90.90200 20273 ft 458 kts 305°
2026-04-15 23:58 15.05167 -90.92927 20897 ft 462 kts 305°
2026-04-15 23:59 15.06961 -90.95674 21522 ft 465 kts 305°
2026-04-15 23:59 15.08780 -90.98464 22151 ft 469 kts 305°
2026-04-15 23:59 15.10604 -91.01262 22726 ft 474 kts 305°
2026-04-15 23:59 15.12445 -91.04085 23173 ft 478 kts 305°
2026-04-16 00:00 15.14303 -91.06936 23627 ft 482 kts 305°
2026-04-16 00:00 15.16172 -91.09805 24080 ft 485 kts 305°
2026-04-16 00:00 15.17888 -91.12440 24492 ft 488 kts 305°
2026-04-16 00:00 15.19781 -91.15347 24945 ft 491 kts 305°
2026-04-16 00:01 15.21698 -91.18294 25402 ft 493 kts 305°
2026-04-16 00:01 15.23611 -91.21235 25855 ft 496 kts 305°
2026-04-16 00:01 15.25528 -91.24182 26308 ft 497 kts 305°
2026-04-16 00:01 15.27454 -91.27145 26761 ft 499 kts 305°
2026-04-16 00:02 15.29381 -91.30113 27213 ft 500 kts 305°
2026-04-16 00:02 15.31315 -91.33089 27605 ft 502 kts 304°
2026-04-16 00:02 15.33264 -91.36092 27988 ft 506 kts 304°
2026-04-16 00:02 15.35234 -91.39127 28366 ft 506 kts 304°
2026-04-16 00:03 15.37181 -91.42129 28735 ft 504 kts 304°
2026-04-16 00:03 15.39139 -91.45146 29117 ft 509 kts 304°
2026-04-16 00:03 15.41103 -91.48175 29492 ft 509 kts 304°
2026-04-16 00:03 15.43060 -91.51196 29860 ft 507 kts 304°
2026-04-16 00:04 15.45011 -91.54207 30227 ft 505 kts 304°
2026-04-16 00:04 15.46951 -91.57204 30591 ft 503 kts 304°
2026-04-16 00:04 15.48901 -91.60217 30959 ft 501 kts 304°
2026-04-16 00:04 15.50837 -91.63208 31331 ft 505 kts 304°
2026-04-16 00:05 15.52784 -91.66219 31709 ft 507 kts 304°
2026-04-16 00:05 15.54736 -91.69238 32082 ft 506 kts 304°
2026-04-16 00:05 15.56684 -91.72253 32451 ft 505 kts 304°
2026-04-16 00:05 15.58626 -91.75258 32819 ft 504 kts 304°
2026-04-16 00:06 15.60560 -91.78253 33186 ft 502 kts 304°
2026-04-16 00:06 15.62502 -91.81262 33556 ft 500 kts 304°